sat.trackr.live / text

‹ back to catalog

STARLINK-31112

NORAD 58680 · 2023-211P

PAYLOAD ACTIVE UNKNOWN

§ Identity

Operator
Country
US
Launch date
2023-12-29
Launch site
AFETR
Launch vehicle
Mass (kg)
RCS (m²)

Purposes: comms

External: N2YO · Heavens-Above · Gunter

§ Orbital elements

Epoch: 2026-09-20T22:08:11.802048Z

Period
94.27 min
Inclination
43.0010°
Eccentricity
0.0001138
Mean motion
15.27582225 rev/d
Perigee alt
482.3 km
Apogee alt
483.8 km
Semi-major
6,861.2 km
B*
-1.0100e-4
RAAN
62.6421°
Arg perigee
269.6626°
Mean anomaly
90.4095°
Rev number
15,350

§ Raw data

STARLINK-311121 58680U 23211P   26263.92235882 -.00003040  00000+0 -10100-3 0  99972 58680  43.0010  62.6421 0001138 269.6626  90.4095 15.27582225153508

JSON: /api/v1/satellites/58680 · /tle

For live sub-satellite position, see the globe view (requires WebGL).

§ Visibility from observer

Set your observer location to see the next 7 days of passes ≥ 10°. The values pass through the URL so the page stays shareable.

No JS? Fill the form by hand. The geolocation button needs JavaScript.